| time (UTC) | temp F | wind direction | speed MPH | gust MPH | rain 1hr in | rain 24hr in | rain mn in | humidity % | barometer mb |
| 20260509075021 | 39 | 136 | 0.0 | 1.0 | 0.00 | 0.03 | 0.00 | 83 | 1008.7 |
| 20260509074529 | 40 | 136 | 0.0 | 0.0 | 0.00 | 0.03 | 0.00 | 82 | 1008.8 |
| 20260509074056 | 40 | 136 | 0.0 | 0.0 | 0.00 | 0.03 | 0.00 | 82 | 1008.8 |
| 20260509073528 | 40 | 136 | 0.0 | 0.0 | 0.00 | 0.03 | 0.00 | 82 | 1008.9 |
| 20260509073029 | 40 | 136 | 0.0 | 0.0 | 0.00 | 0.03 | 0.00 | 81 | 1008.9 |
| 20260509072518 | 40 | 136 | 0.0 | 0.0 | 0.00 | 0.03 | 0.00 | 81 | 1008.9 |
| 20260509072039 | 40 | 136 | 0.0 | 0.0 | 0.00 | 0.03 | 0.00 | 81 | 1008.9 |
| 20260509071522 | 41 | 136 | 0.0 | 0.0 | 0.00 | 0.03 | 0.00 | 80 | 1009.0 |
| 20260509071026 | 41 | 136 | 0.0 | 0.0 | 0.00 | 0.03 | 0.00 | 80 | 1009.0 |
| 20260509070522 | 41 | 136 | 0.0 | 0.0 | 0.00 | 0.03 | 0.00 | 80 | 1009.1 |
| 20260509070027 | 41 | 136 | 0.0 | 0.0 | 0.00 | 0.03 | 0.00 | 79 | 1009.1 |
| 20260509065543 | 42 | 136 | 0.0 | 0.0 | 0.00 | 0.03 | 0.00 | 78 | 1009.1 |
| 20260509065046 | 42 | 136 | 0.0 | 0.0 | 0.00 | 0.03 | 0.00 | 78 | 1009.2 |
| 20260509064517 | 42 | 136 | 0.0 | 0.0 | 0.00 | 0.03 | 0.00 | 78 | 1009.3 |
| 20260509064039 | 42 | 136 | 0.0 | 0.0 | 0.00 | 0.03 | 0.00 | 77 | 1009.4 |
| 20260509063516 | 43 | 136 | 0.0 | 0.0 | 0.00 | 0.03 | 0.00 | 77 | 1009.3 |
| 20260509063037 | 43 | 136 | 0.0 | 0.0 | 0.00 | 0.03 | 0.00 | 77 | 1009.4 |
| 20260509062529 | 43 | 136 | 0.0 | 3.0 | 0.00 | 0.03 | 0.00 | 77 | 1009.4 |
| 20260509062031 | 43 | 136 | 1.0 | 3.0 | 0.00 | 0.03 | 0.00 | 77 | 1009.5 |
| 20260509061524 | 43 | 138 | 0.0 | 5.0 | 0.00 | 0.03 | 0.00 | 77 | 1009.5 |
| 20260509061029 | 42 | 138 | 1.0 | 5.0 | 0.00 | 0.03 | 0.00 | 78 | 1009.5 |
| 20260509060535 | 42 | 142 | 0.0 | 3.0 | 0.00 | 0.03 | 0.00 | 79 | 1009.6 |
| 20260509060056 | 42 | 144 | 1.0 | 3.0 | 0.00 | 0.03 | 0.00 | 80 | 1009.7 |
| 20260509055543 | 42 | 145 | 1.0 | 3.0 | 0.00 | 0.03 | 0.00 | 81 | 1009.7 |
| 20260509055033 | 41 | 145 | 2.0 | 3.0 | 0.00 | 0.03 | 0.00 | 83 | 1009.7 |
| 20260509054559 | 41 | 145 | 1.0 | 4.0 | 0.00 | 0.03 | 0.00 | 84 | 1009.8 |
| 20260509054025 | 40 | 130 | 1.0 | 3.0 | 0.00 | 0.03 | 0.00 | 85 | 1009.9 |
| 20260509053516 | 40 | 130 | 1.0 | 3.0 | 0.00 | 0.03 | 0.00 | 85 | 1010.0 |
| 20260509053031 | 40 | 130 | 0.0 | 0.0 | 0.00 | 0.03 | 0.00 | 85 | 1010.1 |
| 20260509052525 | 40 | 130 | 0.0 | 0.0 | 0.00 | 0.03 | 0.00 | 85 | 1010.1 |
| 20260509052033 | 40 | 130 | 0.0 | 0.0 | 0.00 | 0.03 | 0.00 | 85 | 1010.1 |
| 20260509051522 | 40 | 129 | 0.0 | 0.0 | 0.00 | 0.03 | 0.00 | 85 | 1010.2 |
| 20260509051030 | 40 | 129 | 0.0 | 0.0 | 0.00 | 0.03 | 0.00 | 85 | 1010.2 |
| 20260509050557 | 40 | 129 | 0.0 | 0.0 | 0.00 | 0.03 | 0.00 | 84 | 1010.3 |
| 20260509050026 | 40 | 129 | 0.0 | 0.0 | 0.00 | 0.03 | 0.00 | 84 | 1010.3 |
| 20260509045553 | 40 | 129 | 0.0 | 0.0 | 0.00 | 0.05 | 0.00 | 84 | 1010.3 |
| 20260509045041 | 40 | 129 | 0.0 | 0.0 | 0.00 | 0.05 | 0.00 | 83 | 1010.4 |
| 20260509044606 | 40 | 129 | 0.0 | 0.0 | 0.00 | 0.05 | 0.00 | 83 | 1010.4 |
| 20260509044022 | 40 | 129 | 0.0 | 0.0 | 0.00 | 0.05 | 0.00 | 83 | 1010.5 |
| 20260509043541 | 40 | 129 | 0.0 | 0.0 | 0.00 | 0.05 | 0.00 | 82 | 1010.6 |
| 20260509043042 | 40 | 129 | 0.0 | 0.0 | 0.00 | 0.05 | 0.00 | 82 | 1010.7 |
| 20260509042516 | 41 | 129 | 0.0 | 0.0 | 0.00 | 0.05 | 0.00 | 82 | 1010.7 |
| 20260509042019 | 41 | 129 | 0.0 | 0.0 | 0.00 | 0.05 | 0.00 | 82 | 1010.6 |
| 20260509041534 | 41 | 129 | 0.0 | 0.0 | 0.00 | 0.05 | 0.00 | 81 | 1010.6 |
| 20260509041052 | 41 | 129 | 0.0 | 0.0 | 0.00 | 0.05 | 0.00 | 79 | 1010.5 |
| 20260509040521 | 41 | 129 | 0.0 | 0.0 | 0.00 | 0.05 | 0.00 | 79 | 1010.6 |
| 20260509040036 | 41 | 129 | 0.0 | 0.0 | 0.00 | 0.05 | 0.00 | 79 | 1010.6 |
| 20260509035514 | 41 | 129 | 0.0 | 0.0 | 0.00 | 0.05 | 0.05 | 79 | 1010.7 |
| 20260509035047 | 42 | 129 | 0.0 | 0.0 | 0.00 | 0.05 | 0.05 | 78 | 1010.6 |
| 20260509034523 | 42 | 129 | 0.0 | 0.0 | 0.00 | 0.05 | 0.05 | 78 | 1010.6 |
| 20260509034036 | 42 | 129 | 0.0 | 0.0 | 0.00 | 0.05 | 0.05 | 79 | 1010.6 |
| 20260509033530 | 42 | 129 | 0.0 | 0.0 | 0.00 | 0.05 | 0.05 | 79 | 1010.6 |
| 20260509033020 | 42 | 129 | 0.0 | 0.0 | 0.00 | 0.05 | 0.05 | 78 | 1010.6 |
| 20260509032535 | 42 | 129 | 0.0 | 0.0 | 0.00 | 0.05 | 0.05 | 78 | 1010.6 |
| 20260509032019 | 43 | 129 | 0.0 | 0.0 | 0.00 | 0.05 | 0.05 | 78 | 1010.7 |
| 20260509031531 | 43 | 129 | 0.0 | 0.0 | 0.00 | 0.05 | 0.05 | 78 | 1010.6 |
| 20260509031021 | 43 | 129 | 0.0 | 0.0 | 0.00 | 0.05 | 0.05 | 78 | 1010.7 |
| 20260509030531 | 43 | 129 | 0.0 | 0.0 | 0.00 | 0.05 | 0.05 | 78 | 1010.8 |
| 20260509030020 | 43 | 129 | 0.0 | 0.0 | 0.00 | 0.05 | 0.05 | 78 | 1010.8 |
| 20260509025539 | 44 | 129 | 0.0 | 0.0 | 0.00 | 0.05 | 0.05 | 78 | 1010.7 |
| 20260509025040 | 44 | 129 | 0.0 | 0.0 | 0.00 | 0.05 | 0.05 | 77 | 1010.7 |
| 20260509024546 | 44 | 129 | 0.0 | 0.0 | 0.00 | 0.05 | 0.05 | 76 | 1010.8 |
| 20260509024039 | 44 | 129 | 0.0 | 0.0 | 0.00 | 0.05 | 0.05 | 76 | 1010.7 |
| 20260509023528 | 45 | 129 | 0.0 | 0.0 | 0.00 | 0.05 | 0.05 | 76 | 1010.8 |
| 20260509023033 | 45 | 129 | 0.0 | 1.0 | 0.00 | 0.05 | 0.05 | 75 | 1010.8 |
| 20260509022518 | 45 | 129 | 0.0 | 4.0 | 0.00 | 0.05 | 0.05 | 73 | 1010.8 |
| 20260509022015 | 45 | 129 | 2.0 | 4.0 | 0.00 | 0.05 | 0.05 | 71 | 1010.8 |
| 20260509021537 | 45 | 128 | 2.0 | 4.0 | 0.00 | 0.05 | 0.05 | 71 | 1010.8 |
| 20260509021028 | 46 | 119 | 3.0 | 4.0 | 0.00 | 0.05 | 0.05 | 71 | 1010.8 |
| 20260509020517 | 46 | 96 | 0.0 | 0.0 | 0.00 | 0.05 | 0.05 | 71 | 1010.8 |
| 20260509020023 | 47 | 96 | 0.0 | 0.0 | 0.00 | 0.05 | 0.05 | 70 | 1010.8 |
| 20260509015526 | 47 | 96 | 0.0 | 0.0 | 0.00 | 0.05 | 0.05 | 68 | 1010.8 |
| 20260509015029 | 47 | 96 | 0.0 | 0.0 | 0.00 | 0.05 | 0.05 | 68 | 1010.8 |
| 20260509014520 | 48 | 96 | 0.0 | 0.0 | 0.00 | 0.05 | 0.05 | 67 | 1010.8 |
| 20260509014042 | 48 | 96 | 0.0 | 0.0 | 0.00 | 0.05 | 0.05 | 65 | 1010.8 |
| 20260509013539 | 48 | 96 | 0.0 | 0.0 | 0.00 | 0.05 | 0.05 | 65 | 1010.8 |
| 20260509013028 | 49 | 96 | 0.0 | 0.0 | 0.00 | 0.05 | 0.05 | 65 | 1010.7 |
| 20260509012543 | 49 | 96 | 0.0 | 0.0 | 0.00 | 0.05 | 0.05 | 64 | 1010.6 |
| 20260509012024 | 49 | 88 | 0.0 | 0.0 | 0.00 | 0.05 | 0.05 | 63 | 1010.5 |
| 20260509011523 | 49 | 87 | 0.0 | 0.0 | 0.00 | 0.05 | 0.05 | 63 | 1010.5 |
| 20260509011035 | 50 | 86 | 0.0 | 0.0 | 0.00 | 0.05 | 0.05 | 62 | 1010.4 |
| 20260509010541 | 50 | 71 | 0.0 | 0.0 | 0.00 | 0.05 | 0.05 | 61 | 1010.4 |
| 20260509010028 | 50 | 45 | 0.0 | 0.0 | 0.00 | 0.05 | 0.05 | 60 | 1010.3 |
| 20260509005538 | 51 | 45 | 0.0 | 2.0 | 0.00 | 0.05 | 0.05 | 60 | 1010.2 |
| 20260509005036 | 51 | 45 | 1.0 | 2.0 | 0.00 | 0.05 | 0.05 | 59 | 1010.1 |
| 20260509004546 | 51 | 45 | 0.0 | 0.0 | 0.00 | 0.05 | 0.05 | 58 | 1010.0 |
| 20260509004019 | 52 | 45 | 0.0 | 0.0 | 0.00 | 0.05 | 0.05 | 58 | 1010.0 |
| 20260509003544 | 52 | 45 | 0.0 | 2.0 | 0.00 | 0.05 | 0.05 | 57 | 1010.0 |
| 20260509003021 | 52 | 45 | 0.0 | 2.0 | 0.00 | 0.05 | 0.05 | 56 | 1009.9 |
| 20260509002527 | 53 | 45 | 0.0 | 0.0 | 0.00 | 0.05 | 0.05 | 55 | 1009.9 |
| 20260509002014 | 53 | 45 | 0.0 | 0.0 | 0.00 | 0.05 | 0.05 | 54 | 1009.9 |
| 20260509001522 | 53 | 45 | 0.0 | 1.0 | 0.00 | 0.05 | 0.05 | 53 | 1009.9 |
| 20260509001028 | 53 | 40 | 0.0 | 3.0 | 0.00 | 0.05 | 0.05 | 54 | 1009.8 |
| 20260509000520 | 54 | 34 | 1.0 | 3.0 | 0.00 | 0.05 | 0.05 | 52 | 1009.8 |
| 20260509000024 | 54 | 34 | 0.0 | 1.0 | 0.00 | 0.05 | 0.05 | 53 | 1009.8 |
| 20260508235520 | 54 | 9 | 0.0 | 0.0 | 0.00 | 0.05 | 0.05 | 50 | 1009.8 |
| 20260508235033 | 54 | 9 | 0.0 | 0.0 | 0.00 | 0.05 | 0.05 | 50 | 1009.7 |
| 20260508234545 | 55 | 360 | 0.0 | 0.0 | 0.00 | 0.05 | 0.05 | 49 | 1009.7 |
| 20260508234045 | 55 | 360 | 0.0 | 0.0 | 0.00 | 0.05 | 0.05 | 49 | 1009.6 |
| 20260508233518 | 55 | 360 | 0.0 | 4.0 | 0.00 | 0.05 | 0.05 | 49 | 1009.6 |
| 20260508233023 | 55 | 24 | 2.0 | 4.0 | 0.00 | 0.05 | 0.05 | 49 | 1009.6 |
| 20260508232550 | 56 | 25 | 3.0 | 4.0 | 0.00 | 0.05 | 0.05 | 49 | 1009.6 |
| 20260508232048 | 56 | 360 | 2.0 | 4.0 | 0.00 | 0.05 | 0.05 | 47 | 1009.6 |
| 20260508231522 | 56 | 19 | 2.0 | 4.0 | 0.00 | 0.05 | 0.05 | 48 | 1009.6 |
| 20260508231042 | 57 | 341 | 3.0 | 4.0 | 0.00 | 0.05 | 0.05 | 47 | 1009.6 |
| 20260508230540 | 57 | 340 | 2.0 | 3.0 | 0.00 | 0.05 | 0.05 | 45 | 1009.6 |
| 20260508230043 | 57 | 342 | 0.0 | 0.0 | 0.00 | 0.05 | 0.05 | 44 | 1009.6 |
| 20260508225524 | 57 | 342 | 0.0 | 4.0 | 0.00 | 0.05 | 0.05 | 44 | 1009.6 |
| 20260508225035 | 57 | 342 | 1.0 | 4.0 | 0.00 | 0.05 | 0.05 | 44 | 1009.7 |
| 20260508224546 | 57 | 348 | 1.0 | 5.0 | 0.00 | 0.05 | 0.05 | 44 | 1009.6 |
| 20260508224023 | 57 | 345 | 2.0 | 4.0 | 0.00 | 0.05 | 0.05 | 46 | 1009.6 |
| 20260508223522 | 57 | 42 | 0.0 | 7.0 | 0.00 | 0.05 | 0.05 | 44 | 1009.5 |
| 20260508223018 | 57 | 42 | 3.0 | 7.0 | 0.00 | 0.05 | 0.05 | 44 | 1009.6 |
| 20260508222517 | 57 | 35 | 2.0 | 8.0 | 0.00 | 0.05 | 0.05 | 45 | 1009.5 |
| 20260508222037 | 58 | 25 | 5.0 | 8.0 | 0.00 | 0.05 | 0.05 | 47 | 1009.6 |
| 20260508221539 | 58 | 5 | 3.0 | 5.0 | 0.00 | 0.05 | 0.05 | 46 | 1009.6 |
| 20260508221043 | 58 | 229 | 0.0 | 5.0 | 0.00 | 0.05 | 0.05 | 43 | 1009.6 |
| 20260508220530 | 58 | 273 | 1.0 | 6.0 | 0.00 | 0.05 | 0.05 | 44 | 1009.6 |
| 20260508220018 | 58 | 355 | 4.0 | 6.0 | 0.00 | 0.05 | 0.05 | 44 | 1009.6 |
| 20260508215517 | 57 | 336 | 1.0 | 8.0 | 0.00 | 0.05 | 0.05 | 45 | 1009.7 |
| 20260508215024 | 57 | 5 | 3.0 | 8.0 | 0.00 | 0.05 | 0.05 | 47 | 1009.7 |
| 20260508214523 | 58 | 335 | 3.0 | 10.0 | 0.00 | 0.05 | 0.05 | 45 | 1009.7 |
| 20260508214025 | 58 | 337 | 5.0 | 10.0 | 0.00 | 0.05 | 0.05 | 45 | 1009.6 |
| 20260508213517 | 58 | 14 | 3.0 | 6.0 | 0.00 | 0.05 | 0.05 | 41 | 1009.7 |
| 20260508213031 | 58 | 241 | 2.0 | 6.0 | 0.00 | 0.05 | 0.05 | 43 | 1009.8 |
| 20260508212541 | 57 | 333 | 1.0 | 8.0 | 0.00 | 0.05 | 0.05 | 44 | 1009.8 |
| 20260508212031 | 57 | 261 | 4.0 | 8.0 | 0.00 | 0.05 | 0.05 | 42 | 1009.9 |
| 20260508211534 | 57 | 342 | 3.0 | 6.0 | 0.00 | 0.05 | 0.05 | 45 | 1009.9 |
| 20260508211029 | 57 | 275 | 1.0 | 4.0 | 0.00 | 0.05 | 0.05 | 43 | 1009.8 |
| 20260508210525 | 57 | 340 | 1.0 | 4.0 | 0.00 | 0.05 | 0.05 | 42 | 1009.8 |
| 20260508210033 | 57 | 202 | 2.0 | 4.0 | 0.00 | 0.05 | 0.05 | 46 | 1009.8 |
| 20260508205540 | 56 | 218 | 0.0 | 4.0 | 0.00 | 0.05 | 0.05 | 43 | 1009.9 |
| 20260508205023 | 56 | 280 | 2.0 | 6.0 | 0.00 | 0.05 | 0.05 | 42 | 1010.0 |
| 20260508204546 | 56 | 275 | 2.0 | 7.0 | 0.00 | 0.05 | 0.05 | 45 | 1010.0 |
| 20260508204015 | 56 | 221 | 3.0 | 7.0 | 0.00 | 0.05 | 0.05 | 40 | 1010.1 |
| 20260508203548 | 57 | 284 | 4.0 | 7.0 | 0.00 | 0.05 | 0.05 | 41 | 1010.1 |
| 20260508203028 | 57 | 233 | 2.0 | 6.0 | 0.00 | 0.05 | 0.05 | 48 | 1010.2 |
| 20260508202518 | 56 | 274 | 2.0 | 8.0 | 0.00 | 0.05 | 0.05 | 46 | 1010.3 |
| 20260508202046 | 56 | 279 | 2.0 | 8.0 | 0.00 | 0.05 | 0.05 | 48 | 1010.3 |
| 20260508201520 | 56 | 238 | 1.0 | 8.0 | 0.00 | 0.05 | 0.05 | 47 | 1010.3 |
| 20260508201030 | 56 | 264 | 3.0 | 8.0 | 0.00 | 0.05 | 0.05 | 48 | 1010.4 |
| 20260508200513 | 55 | 340 | 4.0 | 7.0 | 0.00 | 0.05 | 0.05 | 47 | 1010.4 |
| 20260508200037 | 56 | 264 | 1.0 | 5.0 | 0.00 | 0.05 | 0.05 | 47 | 1010.5 |
| 20260508195530 | 56 | 221 | 0.0 | 6.0 | 0.00 | 0.05 | 0.05 | 49 | 1010.5 |
| 20260508195018 | 56 | 263 | 2.0 | 7.0 | 0.00 | 0.05 | 0.05 | 49 | 1010.5 |
| 20260508194533 | 56 | 328 | 2.0 | 7.0 | 0.00 | 0.05 | 0.05 | 47 | 1010.6 |
| 20260508194031 | 56 | 295 | 2.0 | 9.0 | 0.00 | 0.05 | 0.05 | 47 | 1010.7 |
| 20260508193522 | 56 | 296 | 4.0 | 9.0 | 0.00 | 0.05 | 0.05 | 51 | 1010.8 |
| 20260508193032 | 56 | 254 | 5.0 | 8.0 | 0.00 | 0.05 | 0.05 | 50 | 1010.8 |
| 20260508192523 | 55 | 249 | 2.0 | 9.0 | 0.00 | 0.05 | 0.05 | 50 | 1010.9 |
| 20260508192032 | 55 | 258 | 2.0 | 9.0 | 0.00 | 0.05 | 0.05 | 49 | 1010.9 |
| 20260508191536 | 56 | 268 | 3.0 | 6.0 | 0.00 | 0.05 | 0.05 | 51 | 1011.0 |
| 20260508191041 | 55 | 201 | 2.0 | 9.0 | 0.00 | 0.05 | 0.05 | 49 | 1011.0 |
| 20260508190532 | 56 | 219 | 3.0 | 9.0 | 0.00 | 0.05 | 0.05 | 53 | 1011.0 |
| 20260508190023 | 56 | 269 | 2.0 | 9.0 | 0.00 | 0.05 | 0.05 | 52 | 1010.9 |
| 20260508185538 | 55 | 304 | 3.0 | 5.0 | 0.00 | 0.05 | 0.05 | 53 | 1010.9 |
| 20260508185027 | 55 | 203 | 2.0 | 5.0 | 0.00 | 0.05 | 0.05 | 52 | 1011.0 |
| 20260508184517 | 55 | 206 | 3.0 | 7.0 | 0.00 | 0.05 | 0.05 | 56 | 1011.1 |
| 20260508184029 | 56 | 194 | 3.0 | 7.0 | 0.00 | 0.05 | 0.05 | 56 | 1011.0 |
| 20260508183527 | 56 | 247 | 3.0 | 6.0 | 0.00 | 0.05 | 0.05 | 57 | 1011.1 |
| 20260508183035 | 56 | 203 | 3.0 | 7.0 | 0.00 | 0.05 | 0.05 | 59 | 1011.0 |
| 20260508182537 | 55 | 190 | 3.0 | 7.0 | 0.00 | 0.05 | 0.05 | 55 | 1011.0 |
| 20260508182015 | 54 | 148 | 2.0 | 5.0 | 0.00 | 0.05 | 0.05 | 58 | 1011.1 |
| 20260508181540 | 54 | 211 | 3.0 | 6.0 | 0.00 | 0.05 | 0.05 | 58 | 1011.2 |
| 20260508181034 | 54 | 209 | 2.0 | 7.0 | 0.00 | 0.05 | 0.05 | 58 | 1011.2 |
| 20260508180546 | 54 | 192 | 4.0 | 7.0 | 0.00 | 0.05 | 0.05 | 58 | 1011.2 |
| 20260508180044 | 54 | 213 | 3.0 | 5.0 | 0.00 | 0.05 | 0.05 | 59 | 1011.3 |
| 20260508175531 | 54 | 273 | 2.0 | 7.0 | 0.00 | 0.05 | 0.05 | 59 | 1011.3 |
| 20260508175043 | 54 | 209 | 3.0 | 10.0 | 0.00 | 0.05 | 0.05 | 59 | 1011.4 |
| 20260508174518 | 53 | 303 | 4.0 | 10.0 | 0.00 | 0.05 | 0.05 | 58 | 1011.5 |
| 20260508174047 | 53 | 196 | 3.0 | 7.0 | 0.00 | 0.05 | 0.05 | 59 | 1011.5 |
| 20260508173522 | 53 | 197 | 0.0 | 7.0 | 0.00 | 0.05 | 0.05 | 60 | 1011.6 |
| 20260508173056 | 53 | 197 | 2.0 | 9.0 | 0.00 | 0.05 | 0.05 | 62 | 1011.7 |
| 20260508172535 | 53 | 347 | 4.0 | 9.0 | 0.00 | 0.05 | 0.05 | 59 | 1011.7 |
| 20260508172038 | 53 | 225 | 5.0 | 8.0 | 0.00 | 0.05 | 0.05 | 59 | 1011.8 |
| 20260508171528 | 53 | 119 | 1.0 | 3.0 | 0.00 | 0.05 | 0.05 | 62 | 1011.8 |
| 20260508171018 | 53 | 94 | 1.0 | 5.0 | 0.00 | 0.05 | 0.05 | 60 | 1011.8 |
| 20260508170538 | 53 | 194 | 3.0 | 5.0 | 0.00 | 0.05 | 0.05 | 65 | 1011.9 |
| 20260508170020 | 53 | 186 | 3.0 | 6.0 | 0.00 | 0.05 | 0.05 | 63 | 1012.0 |
| 20260508165546 | 53 | 185 | 3.0 | 6.0 | 0.00 | 0.05 | 0.05 | 64 | 1012.0 |
| 20260508165029 | 53 | 203 | 2.0 | 6.0 | 0.00 | 0.05 | 0.05 | 66 | 1012.1 |
| 20260508164519 | 52 | 246 | 3.0 | 5.0 | 0.00 | 0.05 | 0.05 | 66 | 1012.1 |
| 20260508164039 | 52 | 235 | 3.0 | 6.0 | 0.00 | 0.05 | 0.05 | 69 | 1012.1 |
| 20260508163535 | 51 | 197 | 4.0 | 6.0 | 0.00 | 0.05 | 0.05 | 68 | 1012.2 |
| 20260508163029 | 52 | 195 | 4.0 | 8.0 | 0.00 | 0.05 | 0.05 | 67 | 1012.2 |
| 20260508162517 | 51 | 278 | 3.0 | 8.0 | 0.00 | 0.05 | 0.05 | 68 | 1012.2 |
| 20260508162034 | 51 | 203 | 4.0 | 7.0 | 0.00 | 0.05 | 0.05 | 67 | 1012.2 |
| 20260508161540 | 51 | 197 | 3.0 | 8.0 | 0.00 | 0.05 | 0.05 | 68 | 1012.4 |
| 20260508161048 | 51 | 210 | 3.0 | 8.0 | 0.00 | 0.05 | 0.05 | 68 | 1012.3 |
| 20260508160519 | 50 | 248 | 3.0 | 7.0 | 0.00 | 0.05 | 0.05 | 69 | 1012.4 |
| 20260508160016 | 50 | 198 | 4.0 | 7.0 | 0.00 | 0.05 | 0.05 | 72 | 1012.3 |
| 20260508155515 | 50 | 221 | 3.0 | 7.0 | 0.00 | 0.05 | 0.05 | 71 | 1012.4 |
| 20260508155035 | 50 | 188 | 5.0 | 8.0 | 0.00 | 0.05 | 0.05 | 71 | 1012.3 |
| 20260508154529 | 50 | 203 | 5.0 | 6.0 | 0.00 | 0.05 | 0.05 | 73 | 1012.2 |
| 20260508154044 | 50 | 263 | 3.0 | 7.0 | 0.00 | 0.05 | 0.05 | 72 | 1012.2 |
| 20260508153540 | 50 | 206 | 3.0 | 7.0 | 0.00 | 0.05 | 0.05 | 75 | 1012.2 |
| 20260508153053 | 49 | 200 | 2.0 | 7.0 | 0.00 | 0.05 | 0.05 | 74 | 1012.2 |
| 20260508152537 | 49 | 200 | 3.0 | 7.0 | 0.00 | 0.05 | 0.05 | 74 | 1012.3 |
| 20260508152045 | 50 | 217 | 2.0 | 7.0 | 0.00 | 0.05 | 0.05 | 77 | 1012.2 |
| 20260508151540 | 49 | 197 | 4.0 | 7.0 | 0.00 | 0.05 | 0.05 | 77 | 1012.2 |
| 20260508151017 | 48 | 198 | 3.0 | 6.0 | 0.00 | 0.05 | 0.05 | 79 | 1012.1 |
| 20260508150517 | 47 | 187 | 1.0 | 5.0 | 0.00 | 0.05 | 0.05 | 81 | 1012.1 |
| 20260508150033 | 46 | 197 | 3.0 | 5.0 | 0.00 | 0.05 | 0.05 | 83 | 1012.2 |
| 20260508145523 | 45 | 196 | 2.0 | 5.0 | 0.00 | 0.05 | 0.05 | 83 | 1012.3 |
| 20260508145033 | 45 | 261 | 0.0 | 5.0 | 0.00 | 0.05 | 0.05 | 83 | 1012.4 |
| 20260508144517 | 45 | 261 | 1.0 | 5.0 | 0.00 | 0.05 | 0.05 | 83 | 1012.4 |
| 20260508144036 | 45 | 199 | 0.0 | 0.0 | 0.00 | 0.05 | 0.05 | 84 | 1012.4 |
| 20260508143549 | 45 | 199 | 0.0 | 4.0 | 0.00 | 0.05 | 0.05 | 85 | 1012.4 |
| 20260508143018 | 44 | 199 | 0.0 | 4.0 | 0.00 | 0.05 | 0.05 | 86 | 1012.5 |
| 20260508142542 | 44 | 199 | 2.0 | 4.0 | 0.00 | 0.05 | 0.05 | 86 | 1012.6 |
| 20260508142030 | 44 | 213 | 0.0 | 1.0 | 0.00 | 0.05 | 0.05 | 86 | 1012.5 |
| 20260508141538 | 44 | 271 | 0.0 | 3.0 | 0.00 | 0.05 | 0.05 | 86 | 1012.5 |
| 20260508141045 | 44 | 271 | 1.0 | 5.0 | 0.01 | 0.05 | 0.05 | 86 | 1012.5 |
| 20260508140519 | 44 | 267 | 1.0 | 5.0 | 0.01 | 0.05 | 0.05 | 87 | 1012.5 |
| 20260508140048 | 44 | 190 | 0.0 | 1.0 | 0.01 | 0.05 | 0.05 | 87 | 1012.5 |
| 20260508135542 | 44 | 290 | 0.0 | 6.0 | 0.02 | 0.05 | 0.05 | 88 | 1012.4 |
| 20260508135033 | 44 | 267 | 2.0 | 6.0 | 0.02 | 0.05 | 0.05 | 88 | 1012.4 |
| 20260508134518 | 43 | 273 | 2.0 | 5.0 | 0.02 | 0.05 | 0.05 | 89 | 1012.5 |
| 20260508134036 | 43 | 302 | 2.0 | 5.0 | 0.02 | 0.05 | 0.05 | 88 | 1012.5 |
| 20260508133535 | 43 | 260 | 3.0 | 5.0 | 0.02 | 0.05 | 0.05 | 89 | 1012.5 |
| 20260508133041 | 43 | 264 | 2.0 | 5.0 | 0.03 | 0.05 | 0.05 | 89 | 1012.5 |
| 20260508132609 | 43 | 209 | 3.0 | 5.0 | 0.03 | 0.05 | 0.05 | 89 | 1012.5 |
| 20260508132045 | 43 | 267 | 1.0 | 7.0 | 0.03 | 0.05 | 0.05 | 89 | 1012.5 |
| 20260508131532 | 42 | 258 | 1.0 | 7.0 | 0.03 | 0.05 | 0.05 | 89 | 1012.4 |
| 20260508131053 | 42 | 250 | 2.0 | 8.0 | 0.02 | 0.04 | 0.04 | 89 | 1012.4 |
| 20260508130522 | 42 | 290 | 3.0 | 11.0 | 0.02 | 0.04 | 0.04 | 89 | 1012.4 |
| 20260508130037 | 42 | 298 | 4.0 | 11.0 | 0.02 | 0.04 | 0.04 | 89 | 1012.5 |
| 20260508125525 | 42 | 280 | 3.0 | 9.0 | 0.01 | 0.03 | 0.03 | 90 | 1012.4 |
| 20260508125019 | 42 | 273 | 4.0 | 9.0 | 0.01 | 0.03 | 0.03 | 90 | 1012.3 |
| 20260508124528 | 42 | 275 | 0.0 | 5.0 | 0.01 | 0.03 | 0.03 | 91 | 1012.3 |
| 20260508124053 | 42 | 276 | 2.0 | 5.0 | 0.01 | 0.03 | 0.03 | 91 | 1012.2 |
| 20260508123545 | 42 | 260 | 2.0 | 4.0 | 0.01 | 0.03 | 0.03 | 92 | 1012.1 |
| 20260508123026 | 42 | 181 | 0.0 | 3.0 | 0.00 | 0.02 | 0.02 | 92 | 1011.9 |
| 20260508122528 | 42 | 181 | 1.0 | 4.0 | 0.00 | 0.02 | 0.02 | 92 | 1011.9 |
| 20260508122026 | 42 | 219 | 1.0 | 4.0 | 0.00 | 0.02 | 0.02 | 92 | 1011.8 |
| 20260508121546 | 42 | 196 | 1.0 | 3.0 | 0.00 | 0.02 | 0.02 | 92 | 1011.8 |
| 20260508121016 | 42 | 196 | 0.0 | 2.0 | 0.00 | 0.02 | 0.02 | 92 | 1011.6 |
| 20260508120540 | 41 | 196 | 0.0 | 0.0 | 0.00 | 0.02 | 0.02 | 92 | 1011.3 |
| 20260508120017 | 41 | 196 | 0.0 | 0.0 | 0.00 | 0.02 | 0.02 | 92 | 1011.3 |
| 20260508115518 | 41 | 196 | 0.0 | 0.0 | 0.00 | 0.02 | 0.02 | 92 | 1011.3 |
| 20260508115030 | 41 | 196 | 0.0 | 0.0 | 0.00 | 0.02 | 0.02 | 92 | 1011.3 |
| 20260508114541 | 41 | 196 | 0.0 | 0.0 | 0.00 | 0.02 | 0.02 | 92 | 1011.3 |
| 20260508114020 | 41 | 196 | 0.0 | 1.0 | 0.00 | 0.02 | 0.02 | 92 | 1011.2 |
| 20260508113033 | 40 | 186 | 0.0 | 0.0 | 0.00 | 0.02 | 0.02 | 92 | 1011.1 |
| 20260508112517 | 40 | 186 | 0.0 | 0.0 | 0.00 | 0.02 | 0.02 | 92 | 1011.0 |
| 20260508112036 | 40 | 186 | 0.0 | 0.0 | 0.00 | 0.02 | 0.02 | 92 | 1011.1 |
| 20260508111552 | 40 | 148 | 0.0 | 0.0 | 0.00 | 0.02 | 0.02 | 92 | 1011.0 |
| 20260508111023 | 40 | 148 | 0.0 | 0.0 | 0.00 | 0.02 | 0.02 | 91 | 1010.8 |
| 20260508110521 | 40 | 148 | 0.0 | 0.0 | 0.00 | 0.02 | 0.02 | 91 | 1010.9 |
| 20260508110023 | 40 | 148 | 0.0 | 0.0 | 0.00 | 0.02 | 0.02 | 91 | 1010.9 |
| 20260508105549 | 40 | 148 | 0.0 | 0.0 | 0.00 | 0.02 | 0.02 | 91 | 1010.8 |
| 20260508105018 | 39 | 148 | 0.0 | 0.0 | 0.00 | 0.02 | 0.02 | 91 | 1010.7 |
| 20260508104515 | 39 | 148 | 0.0 | 0.0 | 0.00 | 0.02 | 0.02 | 91 | 1010.6 |
| 20260508104033 | 39 | 150 | 0.0 | 0.0 | 0.00 | 0.02 | 0.02 | 91 | 1010.6 |
| 20260508103531 | 39 | 150 | 0.0 | 0.0 | 0.00 | 0.02 | 0.02 | 90 | 1010.8 |
| 20260508103035 | 39 | 150 | 0.0 | 0.0 | 0.00 | 0.02 | 0.02 | 90 | 1010.8 |
| 20260508102524 | 39 | 138 | 0.0 | 0.0 | 0.00 | 0.02 | 0.02 | 90 | 1010.9 |
| 20260508102032 | 39 | 138 | 0.0 | 0.0 | 0.00 | 0.02 | 0.02 | 90 | 1010.9 |
| 20260508101549 | 38 | 138 | 0.0 | 0.0 | 0.00 | 0.02 | 0.02 | 90 | 1010.9 |
| 20260508101037 | 38 | 137 | 0.0 | 0.0 | 0.00 | 0.02 | 0.02 | 90 | 1011.0 |
| 20260508100539 | 38 | 156 | 0.0 | 0.0 | 0.00 | 0.02 | 0.02 | 90 | 1011.1 |
| 20260508100039 | 38 | 260 | 0.0 | 0.0 | 0.00 | 0.02 | 0.02 | 90 | 1011.1 |
| 20260508095516 | 38 | 260 | 0.0 | 0.0 | 0.00 | 0.02 | 0.02 | 90 | 1011.2 |
| 20260508095047 | 38 | 260 | 0.0 | 0.0 | 0.00 | 0.02 | 0.02 | 90 | 1011.2 |
| 20260508094517 | 38 | 260 | 0.0 | 0.0 | 0.00 | 0.02 | 0.02 | 90 | 1011.3 |
| 20260508094024 | 38 | 260 | 0.0 | 0.0 | 0.00 | 0.02 | 0.02 | 89 | 1011.2 |
| 20260508093545 | 38 | 260 | 0.0 | 0.0 | 0.00 | 0.02 | 0.02 | 89 | 1011.2 |
| 20260508093028 | 38 | 260 | 0.0 | 0.0 | 0.00 | 0.02 | 0.02 | 90 | 1011.2 |
| 20260508092534 | 38 | 260 | 0.0 | 0.0 | 0.00 | 0.02 | 0.02 | 89 | 1011.3 |
| 20260508092040 | 38 | 260 | 0.0 | 0.0 | 0.00 | 0.02 | 0.02 | 89 | 1011.3 |
| 20260508091514 | 38 | 260 | 0.0 | 0.0 | 0.00 | 0.02 | 0.02 | 89 | 1011.3 |
| 20260508091043 | 38 | 260 | 0.0 | 0.0 | 0.00 | 0.02 | 0.02 | 89 | 1011.2 |
| 20260508090531 | 38 | 260 | 0.0 | 0.0 | 0.00 | 0.02 | 0.02 | 89 | 1011.3 |
| 20260508090035 | 38 | 260 | 0.0 | 0.0 | 0.00 | 0.02 | 0.02 | 89 | 1011.3 |
| 20260508085538 | 38 | 260 | 0.0 | 0.0 | 0.00 | 0.02 | 0.02 | 89 | 1011.3 |
| 20260508085034 | 39 | 260 | 0.0 | 0.0 | 0.00 | 0.02 | 0.02 | 89 | 1011.3 |
| 20260508084530 | 39 | 260 | 0.0 | 0.0 | 0.00 | 0.02 | 0.02 | 88 | 1011.2 |
| 20260508084058 | 39 | 260 | 0.0 | 0.0 | 0.00 | 0.02 | 0.02 | 88 | 1011.1 |
| 20260508083517 | 39 | 260 | 0.0 | 0.0 | 0.00 | 0.02 | 0.02 | 88 | 1011.1 |
| 20260508083042 | 39 | 260 | 0.0 | 0.0 | 0.00 | 0.02 | 0.02 | 88 | 1011.0 |
| 20260508082515 | 39 | 260 | 0.0 | 0.0 | 0.00 | 0.02 | 0.02 | 88 | 1011.0 |
| 20260508082037 | 40 | 260 | 0.0 | 0.0 | 0.00 | 0.02 | 0.02 | 88 | 1011.1 |
| 20260508081516 | 40 | 260 | 0.0 | 0.0 | 0.00 | 0.02 | 0.02 | 88 | 1011.0 |
| 20260508081044 | 40 | 260 | 0.0 | 0.0 | 0.00 | 0.02 | 0.02 | 88 | 1011.1 |
| 20260508080523 | 40 | 260 | 0.0 | 0.0 | 0.00 | 0.02 | 0.02 | 88 | 1011.1 |
| 20260508080044 | 40 | 260 | 0.0 | 0.0 | 0.00 | 0.02 | 0.02 | 88 | 1011.0 |
| 20260508075530 | 40 | 260 | 0.0 | 0.0 | 0.00 | 0.02 | 0.02 | 87 | 1010.9 |